RH
75 77 78 76 75 77 75 75 76 75 73 71 71 66 63 64 52 4 7 20 30 58 61 15 3 4 5 6 6 5 7 10 10 10 16 13 14 14 14 16 16 17 19 19 16
76 77 77 76 76 75 75 76 77 77 72 74 73 64 65 67 2 3 30 50 61 61 7 4 5 5 6 7 6 5 9 13 10 11 13 12 12 14 14 15 17 17 16 16 14
75 78 76 76 76 76 77 78 76 75 75 73 72 65 52 23 4 3 37 50 60 40 4 4 5 6 8 8 8 8 13 12 12 11 10 11 12 12 13 15 15 16 15 14 12
79 79 76 75 75 76 81 80 76 75 68 64 50 55 55 7 5 3 40 52 52 12 5 5 5 8 9 10 9 12 12 12 12 10 10 10 10 12 13 15 13 14 13 12 12
79 77 78 76 75 76 81 76 67 68 65 57 56 53 11 5 4 3 40 28 4 4 5 6 7 8 9 9 10 12 12 11 10 10 10 10 11 14 15 13 13 13 14 13 12
78 78 78 78 77 78 78 72 68 65 58 52 49 52 5 8 3 3 3 4 4 4 5 6 8 7 9 9 9 10 10 10 9 11 11 11 12 14 14 14 14 13 12 12 13
80 78 79 79 77 78 72 69 62 65 58 58 52 5 8 6 3 2 3 4 4 5 7 7 7 7 8 10 8 9 10 9 9 10 10 11 14 12 11 13 13 12 11 11 12
82 82 81 83 80 74 66 66 62 61 51 48 48 6 8 4 2 2 3 4 3 4 4 5 6 8 9 9 6 5 6 7 8 7 10 11 9 10 9 10 10 10 10 11 11
83 82 82 81 79 70 64 53 51 49 39 43 9 7 7 14 4 3 3 3 3 3 4 3 5 8 7 6 6 7 6 8 8 7 7 9 8 8 9 9 10 9 9 9 10
84 84 82 79 81 68 55 46 46 37 15 4 4 8 6 5 4 4 4 3 4 4 5 5 5 6 6 6 9 10 8 7 8 8 8 7 8 7 8 8 10 9 9 9 9
86 86 85 79 77 67 36 13 10 11 8 7 6 6 5 4 4 4 4 5 5 6 8 7 8 10 11 10 9 9 10 10 7 10 12 10 9 8 7 8 8 7 6 7 8
85 86 85 82 68 68 24 13 19 11 12 7 6 6 5 4 6 5 4 7 8 8 8 8 12 10 8 9 10 11 12 12 9 11 13 10 10 8 7 8 8 8 9 10 10
85 86 84 80 68 34 20 19 12 13 12 10 7 7 7 5 6 6 6 6 8 9 10 11 10 10 11 11 14 13 15 14 10 9 9 12 11 9 8 8 8 9 9 9 10
87 88 85 79 35 23 25 24 22 26 16 11 8 8 7 7 9 5 6 7 8 10 10 11 10 11 10 11 13 15 12 12 11 13 12 11 21 14 9 8 9 10 11 10 11
84 86 86 79 26 20 28 28 29 38 28 8 8 7 7 8 8 7 6 7 10 10 12 13 10 11 12 13 12 15 14 13 12 15 16 14 14 18 10 14 12 12 12 11 12
83 83 79 33 31 32 31 33 40 36 31 11 8 9 10 9 9 8 8 7 8 9 9 10 8 9 11 11 11 12 14 14 14 14 25 18 16 30 24 17 14 13 12 12 12
80 74 44 31 37 37 43 36 36 79 13 10 10 10 10 11 11 10 11 12 11 17 15 11 10 9 10 14 13 13 19 18 18 21 30 26 24 56 19 14 15 14 14 12 14
79 70 65 40 40 49 41 24 100 13 11 9 9 10 12 11 12 12 12 11 10 12 12 12 16 11 11 15 19 17 20 36 45 33 30 26 64 53 19 13 14 14 14 12 13
86 40 41 50 54 50 28 59 25 10 9 9 10 13 13 12 13 13 13 12 11 13 19 19 18 10 12 12 15 21 23 17 37 34 33 30 35 33 15 16 17 18 15 14 14
29 27 33 50 56 50 24 40 18 11 9 8 13 12 13 13 15 15 15 13 12 12 14 18 21 14 13 12 14 18 16 34 36 60 56 47 41 41 25 23 20 20 18 14 13
42 24 41 46 53 27 41 24 17 11 11 12 13 13 11 13 14 15 16 14 12 14 14 16 21 23 16 21 19 19 21 32 32 33 43 53 53 42 29 26 26 24 20 15 15
42 27 38 48 28 23 28 19 30 11 12 13 15 15 15 13 14 16 17 17 12 16 21 22 27 30 18 18 14 16 23 23 35 34 30 39 70 24 25 24 25 24 20 15 16
27 23 33 49 78 58 28 18 14 14 13 15 15 15 17 16 20 17 17 20 15 18 27 25 31 31 26 24 21 22 20 21 24 35 68 44 41 19 19 30 26 26 21 16 16
28 64 25 24 27 28 25 20 20 17 14 15 15 15 18 18 17 19 20 20 18 18 34 29 32 39 37 30 23 31 25 20 29 43 56 39 31 24 25 90 44 36 29 21 16
29 46 34 87 42 27 27 22 20 21 17 16 18 17 18 20 18 21 18 25 21 44 26 31 41 31 27 23 22 27 25 24 39 65 54 43 60 48 48 97 99 48 27 21 17
38 34 29 29 29 30 37 27 21 17 19 19 21 16 17 22 19 22 20 24 24 29 29 31 38 33 39 23 46 30 25 23 24 34 51 44 43 30 22 20 29 35 33 29 20
34 35 37 52 37 33 32 25 22 19 21 16 19 19 22 20 19 22 23 26 25 30 36 33 36 35 38 36 42 49 36 29 28 28 52 61 90 42 34 33 46 57 31 30 30
Wind_Speed
7 9 10 10 10 10 10 10 9 8 8 10 7 6 10 14 10 24 24 15 13 26 18 16 5 8 13 14 5 4 12 12 9 11 12 6 12 11 10 13 14 10 11 7 5
8 9 10 10 10 11 11 10 10 8 9 9 5 4 7 9 9 29 17 20 19 19 10 10 15 14 15 14 13 10 12 13 13 14 13 8 12 6 4 8 8 9 7 3 4
10 10 9 10 11 11 11 9 9 9 9 9 4 6 8 10 7 20 24 21 16 17 7 7 10 17 21 18 8 20 18 16 16 11 11 11 9 1 3 7 6 5 5 5 6
9 10 10 10 11 11 8 9 8 7 6 8 12 7 8 12 7 18 22 19 15 13 6 4 4 12 14 13 15 22 17 16 13 7 6 9 7 7 5 9 5 4 5 6 9
10 10 10 12 12 10 8 7 8 8 8 9 7 10 8 17 14 16 15 5 4 11 9 11 13 12 13 19 19 18 15 14 11 9 9 2 6 6 6 4 2 3 3 6 7
9 10 11 11 11 9 6 6 8 8 9 13 17 4 13 28 10 12 16 15 17 12 9 13 18 17 12 10 9 13 16 13 10 8 6 3 7 5 6 3 3 4 5 5 7
11 11 11 11 9 6 7 8 7 8 10 9 9 10 29 13 10 9 14 18 20 13 15 6 1 2 16 19 16 16 15 11 7 5 4 4 9 2 6 5 5 6 7 6 7
11 12 12 9 7 6 5 5 7 6 4 10 11 18 14 8 10 11 14 15 13 16 16 17 18 15 10 17 11 7 7 6 7 2 6 7 12 7 5 6 7 6 8 9 10
11 12 12 11 8 6 0 4 1 3 7 10 2 8 10 4 14 9 8 10 12 12 10 11 14 14 12 9 12 6 8 6 10 1 2 4 7 7 4 5 7 9 10 10 11
11 12 12 10 7 8 6 5 9 6 7 5 5 7 10 10 8 6 5 1 2 1 4 4 7 11 13 10 9 11 11 4 6 6 5 9 9 2 5 8 7 10 11 12 13
11 11 9 11 9 5 7 6 7 6 18 20 14 15 9 2 11 13 3 1 5 6 13 16 13 14 15 13 8 6 7 4 7 6 9 3 7 8 3 6 8 10 13 14 15
11 12 11 10 11 9 7 4 6 6 14 12 14 15 9 2 6 15 10 6 4 8 8 14 16 11 7 9 7 9 11 10 5 1 6 10 12 7 2 4 8 12 15 15 15
11 11 12 10 10 5 12 8 6 7 2 7 7 9 6 11 11 14 10 3 10 14 16 19 8 6 7 8 10 6 12 10 7 12 8 15 11 2 6 3 6 10 10 11 14
12 11 11 9 2 2 6 5 5 4 5 5 4 6 5 2 6 8 7 4 3 6 7 9 4 3 6 5 11 4 12 7 5 9 6 7 6 4 1 10 7 11 13 13 13
11 11 10 6 4 3 6 6 4 4 3 3 6 3 5 3 2 8 7 8 10 4 6 6 1 6 7 6 8 7 9 6 6 8 10 3 9 6 6 13 12 12 14 13 13
10 11 8 4 3 5 7 6 4 6 4 5 2 2 4 5 4 3 3 3 3 2 10 7 2 3 7 6 5 11 11 13 7 8 7 6 5 3 9 11 15 14 14 14 12
8 9 5 3 4 6 6 5 2 2 2 6 4 2 1 3 4 1 3 6 6 6 3 6 4 4 6 10 6 11 16 2 6 6 7 4 4 3 8 13 11 13 14 13 11
8 7 4 6 6 6 5 5 4 3 0 3 4 4 2 0 4 1 3 1 5 9 7 8 5 3 6 5 6 8 9 5 6 7 10 6 4 5 6 8 5 9 12 11 10
9 2 1 4 6 4 6 1 3 2 4 5 5 5 5 2 4 3 2 5 6 9 8 7 5 5 3 3 6 6 5 5 6 8 6 1 4 5 5 11 12 12 12 11 9
3 3 3 5 5 5 6 1 2 4 3 4 6 3 2 5 4 3 1 3 3 4 5 5 6 2 5 3 4 5 5 4 3 6 7 4 6 5 10 12 13 14 12 11 10
5 4 4 5 4 6 4 0 2 3 2 3 3 3 3 2 5 2 2 4 1 2 5 5 3 6 3 7 3 5 4 3 5 3 6 7 3 2 6 9 12 12 11 10 9
2 3 3 4 5 2 3 1 2 5 2 2 4 4 4 2 3 2 2 4 2 2 5 7 6 6 5 5 4 6 6 5 5 3 5 4 8 3 2 7 11 12 9 8 7
2 3 3 3 2 3 3 4 2 4 4 3 3 3 0 3 4 3 1 3 2 2 6 4 2 7 8 6 5 5 4 7 6 2 7 6 2 4 5 11 13 11 9 8 5
3 2 3 5 3 5 5 5 6 2 2 3 2 3 4 5 5 2 3 3 2 1 4 2 6 8 9 14 8 8 8 8 8 6 6 12 18 14 16 11 15 11 9 8 6
2 2 2 2 4 5 3 1 7 6 5 6 5 10 6 5 4 7 3 5 5 7 4 5 8 10 14 18 17 16 15 14 15 13 8 5 12 20 20 11 5 7 7 7 7
3 2 4 2 2 6 4 7 10 6 6 6 9 1 8 9 6 5 3 5 5 8 6 5 6 10 15 8 5 13 14 15 17 18 21 22 27 20 6 6 6 8 8 8 8
2 1 5 4 5 6 7 7 4 4 5 6 5 6 7 4 5 3 4 3 4 6 8 6 5 7 7 2 11 15 13 18 13 11 12 14 10 8 11 12 9 6 8 7 8
Wind_Direction
5 2 9 10 11 14 19 16 0 353 335 315 310 297 299 318 312 45 34 322 293 299 305 255 35 89 57 60 24 173 105 90 89 101 119 119 97 69 69 77 62 62 66 59 33
3 8 9 9 10 15 13 13 3 342 338 342 340 270 268 310 20 37 355 336 326 316 296 54 66 78 67 57 34 78 93 69 76 91 109 93 90 106 129 108 100 95 95 63 359
5 6 5 5 8 10 5 355 353 347 350 349 1 170 238 289 54 14 344 328 312 309 360 70 68 83 77 52 46 78 94 98 82 78 96 107 97 53 121 110 35 55 56 24 347
2 4 1 1 2 8 353 350 352 6 9 1 340 336 290 236 52 1 322 308 289 282 256 211 105 81 74 82 91 93 89 94 92 72 93 63 88 78 17 68 73 60 354 348 345
7 1 357 359 359 1 358 2 16 23 7 358 325 297 90 74 33 359 322 17 297 11 53 74 100 74 91 95 89 94 97 98 95 82 67 121 64 97 98 87 96 36 283 331 340
1 359 358 354 356 353 8 36 27 8 1 355 351 238 75 70 336 25 19 28 33 61 83 79 78 93 80 72 64 118 113 109 100 99 63 130 110 275 134 188 211 257 298 319 331
358 352 351 353 349 355 18 29 49 45 348 338 323 80 62 59 37 37 49 52 47 68 75 70 136 56 105 96 110 130 118 127 96 79 106 330 185 177 127 197 256 278 285 297 298
354 348 344 343 359 10 33 48 43 26 328 307 318 76 77 45 44 28 72 70 68 76 79 70 74 86 86 124 162 176 219 205 91 217 117 255 87 128 172 210 261 282 284 289 293
350 346 345 352 341 332 15 187 235 277 308 252 335 83 68 116 34 40 34 68 96 88 87 103 97 108 158 173 175 162 35 22 147 90 310 253 350 124 190 244 284 298 292 290 290
350 349 341 347 338 311 305 304 319 214 225 254 16 114 43 36 37 56 23 95 341 231 150 120 79 63 35 8 37 7 360 4 33 74 311 276 270 160 201 245 283 307 303 295 295
349 343 340 332 333 311 278 214 211 59 50 60 62 87 109 122 62 31 81 281 121 81 70 50 70 47 39 37 34 16 349 342 39 48 308 266 279 283 264 223 280 309 332 327 325
348 344 342 331 320 311 265 39 39 38 79 68 90 83 75 35 49 34 11 36 81 94 142 111 58 37 40 27 0 7 358 15 118 47 290 315 306 291 294 287 313 322 314 313 304
347 343 342 328 322 359 66 56 10 341 127 74 56 55 36 49 38 28 3 4 37 67 52 60 59 26 356 32 342 80 6 357 338 325 254 300 230 130 120 289 273 275 310 308 327
346 339 334 328 307 338 67 358 15 343 204 67 48 62 19 346 77 29 358 336 64 48 47 64 78 337 312 55 346 340 6 331 301 304 4 11 343 154 227 295 4 1 345 331 337
348 338 327 354 333 356 14 343 337 238 212 56 80 17 56 54 110 62 17 55 57 64 258 83 107 354 14 3 335 22 345 316 295 280 303 100 281 58 191 353 341 349 348 342 341
351 343 316 247 71 22 346 316 265 235 85 127 102 121 174 67 68 101 64 47 356 59 55 93 89 339 6 313 287 295 257 219 251 257 230 48 328 5 2 330 347 357 342 343 350
349 344 10 349 14 338 311 250 262 76 131 142 135 193 84 89 106 9 18 52 359 283 160 164 121 91 331 310 189 329 327 125 228 207 21 31 271 308 330 350 336 334 333 348 334
326 316 36 48 348 329 264 246 83 30 185 68 160 165 291 284 112 105 234 217 80 333 293 334 179 353 34 22 322 339 340 18 303 339 328 163 267 334 308 321 346 325 350 336 350
314 171 139 25 330 290 251 28 320 22 99 171 160 239 148 166 298 249 328 22 30 11 344 338 93 125 40 346 319 8 19 4 277 240 262 77 172 238 235 2 360 351 354 347 347
262 221 81 338 326 250 246 233 315 11 332 221 268 262 248 154 233 242 170 71 94 11 343 48 284 99 87 247 151 318 352 239 206 320 316 8 273 329 359 353 351 352 356 347 350
264 232 73 325 276 228 204 181 150 114 323 296 308 270 303 293 279 292 42 120 247 98 329 337 272 119 219 194 328 180 193 242 265 280 313 315 356 281 344 351 351 342 350 339 347
278 228 50 297 221 313 196 37 335 156 189 198 289 307 286 332 270 269 316 45 51 345 342 39 314 285 351 82 325 293 284 263 294 70 256 274 277 151 320 352 334 344 344 342 330
278 58 144 267 120 261 133 154 249 188 201 194 238 272 8 271 271 250 236 70 146 272 3 31 227 292 161 174 171 248 240 245 265 306 254 288 341 157 217 5 356 337 338 319 332
264 108 139 220 336 272 195 198 179 212 226 240 295 246 225 240 225 270 211 129 199 260 49 303 261 263 287 314 304 272 255 233 223 266 301 253 285 309 339 344 327 323 317 307 309
220 314 18 218 256 233 237 200 211 191 230 219 209 239 230 260 244 239 225 139 189 135 216 262 273 284 282 289 287 276 265 248 227 228 258 316 308 298 304 289 272 263 287 287 284
299 253 170 121 210 224 157 224 236 192 194 205 242 211 231 248 271 309 266 211 266 154 220 193 278 299 295 274 316 272 258 250 246 236 233 260 276 280 276 275 268 267 269 267 279
92 163 289 119 197 228 218 253 239 237 192 283 251 260 233 267 327 346 314 317 302 210 209 228 276 310 279 202 278 277 248 227 226 226 224 240 244 274 299 313 297 271 272 245 260